timestamp,surface_pressure_avg,surface_temp_avg,battery_voltage,lat,long
2019-04-21 00:00:00+00:00,386.6545,0.3,12.89,47.84626,-54.09684
2019-04-21 00:10:00+00:00,388.2213,0.3,12.81,47.84626,-54.09684
2019-04-21 00:20:00+00:00,381.4895,0.3,12.89,47.84626,-54.09684
2019-04-21 00:30:00+00:00,381.498,0.3,12.89,47.84626,-54.09684
2019-04-21 00:40:00+00:00,388.0162,0.3,12.89,47.84626,-54.09684
2019-04-21 00:50:00+00:00,389.7913,0.3,12.97,47.84626,-54.09684
2019-04-21 01:00:00+00:00,385.8412,0.3,12.81,47.84626,-54.09684
2019-04-21 01:10:00+00:00,380.7029,0.3,12.81,47.84626,-54.09684
2019-04-21 01:20:00+00:00,378.0779,0.3,12.89,47.84626,-54.09684
2019-04-21 01:30:00+00:00,374.6495,0.3,12.89,47.84626,-54.09684
2019-04-21 01:40:00+00:00,364.393,0.3,12.89,47.84626,-54.09684
2019-04-21 01:50:00+00:00,359.2747,0.3,12.89,47.84626,-54.09684
2019-04-21 02:00:00+00:00,362.8362,0.3,12.81,47.84626,-54.09684
2019-04-21 02:10:00+00:00,358.0746,0.3,12.73,47.84626,-54.09684
2019-04-21 02:20:00+00:00,348.7863,0.3,12.81,47.84626,-54.09684
2019-04-21 02:30:00+00:00,340.9713,0.3,12.81,47.84626,-54.09684
2019-04-21 02:40:00+00:00,335.8563,0.3,12.81,47.84626,-54.09684
2019-04-21 02:50:00+00:00,323.0164,0.3,12.89,47.84626,-54.09684
2019-04-21 03:00:00+00:00,313.0831,0.32,12.81,47.84626,-54.09684
2019-04-21 03:10:00+00:00,306.498,0.34,12.73,47.84626,-54.09684
2019-04-21 03:20:00+00:00,299.4147,0.34,12.81,47.84626,-54.09684
2019-04-21 03:30:00+00:00,281.5114,0.32,12.81,47.84626,-54.09684
2019-04-21 03:40:00+00:00,269.3114,0.33,12.81,47.84626,-54.09684
2019-04-21 03:50:00+00:00,269.7214,0.34,12.81,47.84626,-54.09684
2019-04-21 04:00:00+00:00,255.6081,0.36,12.73,47.84626,-54.09684
2019-04-21 04:10:00+00:00,228.7648,0.4,12.65,47.84626,-54.09684
2019-04-21 04:20:00+00:00,221.7731,0.4,12.73,47.84626,-54.09684
2019-04-21 04:30:00+00:00,225.4114,0.4,12.81,47.84626,-54.09684
2019-04-21 04:40:00+00:00,207.4348,0.4,12.81,47.84626,-54.09684
2019-04-21 04:50:00+00:00,185.2731,0.48,12.81,47.84626,-54.09684
2019-04-21 05:00:00+00:00,186.0098,0.49,12.73,47.84626,-54.09684
2019-04-21 05:10:00+00:00,187.7965,0.47,12.65,47.84626,-54.09684
2019-04-21 05:20:00+00:00,170.1198,0.5,12.73,47.84626,-54.09684
2019-04-21 05:30:00+00:00,160.8549,0.56,12.73,47.84626,-54.09684
2019-04-21 05:40:00+00:00,167.3482,0.58,12.81,47.84626,-54.09684
2019-04-21 05:50:00+00:00,157.3498,0.58,12.81,47.84626,-54.09684
2019-04-21 06:00:00+00:00,143.5315,0.6,12.73,47.84626,-54.09684
2019-04-21 06:10:00+00:00,149.7382,0.6,12.65,47.84626,-54.09684
2019-04-21 06:20:00+00:00,152.6249,0.59,12.73,47.84626,-54.09684
2019-04-21 06:30:00+00:00,146.5765,0.6,12.73,47.84626,-54.09684
2019-04-21 06:40:00+00:00,145.7782,0.6,12.73,47.84626,-54.09684
2019-04-21 06:50:00+00:00,149.4732,0.6,12.81,47.84626,-54.09684
2019-04-21 07:00:00+00:00,151.3065,0.6,12.73,47.84626,-54.09684
2019-04-21 07:10:00+00:00,146.9365,0.6,12.65,47.84626,-54.09684
2019-04-21 07:20:00+00:00,146.0799,0.56,12.73,47.84626,-54.09684
2019-04-21 07:30:00+00:00,157.9515,0.5,12.73,47.84626,-54.09684
2019-04-21 07:40:00+00:00,164.4598,0.5,12.73,47.84626,-54.09684
2019-04-21 07:50:00+00:00,164.1065,0.5,12.73,47.84626,-54.09684
2019-04-21 08:00:00+00:00,172.4598,0.5,12.73,47.84626,-54.09684
2019-04-21 08:10:00+00:00,180.3081,0.48,12.65,47.84626,-54.09684
2019-04-21 08:20:00+00:00,182.4065,0.45,12.73,47.84626,-54.09684
2019-04-21 08:30:00+00:00,185.7131,0.44,12.73,47.84626,-54.09684
2019-04-21 08:40:00+00:00,189.5581,0.4,12.73,47.84626,-54.09684
2019-04-21 08:50:00+00:00,194.1448,0.4,12.73,47.84626,-54.09684
2019-04-21 09:00:00+00:00,197.2898,0.4,12.65,47.84626,-54.09684
2019-04-21 09:10:00+00:00,198.3448,0.4,12.65,47.84626,-54.09684
2019-04-21 09:20:00+00:00,205.1748,0.4,12.73,47.84626,-54.09684
2019-04-21 09:30:00+00:00,210.7848,0.4,12.81,47.84626,-54.09684
2019-04-21 09:40:00+00:00,216.5681,0.4,12.89,47.84626,-54.09684
2019-04-21 09:50:00+00:00,226.0264,0.43,13.05,47.84626,-54.09684
2019-04-21 10:00:00+00:00,233.8247,0.4,13.13,47.84626,-54.09684
2019-04-21 10:10:00+00:00,235.0398,0.4,13.05,47.84626,-54.09684
2019-04-21 10:20:00+00:00,240.2048,0.4,13.21,47.84626,-54.09684
2019-04-21 10:30:00+00:00,247.0431,0.39,13.21,47.84626,-54.09684
2019-04-21 10:40:00+00:00,258.6231,0.38,13.29,47.84626,-54.09684
2019-04-21 10:50:00+00:00,265.3631,0.35,13.29,47.84626,-54.09684
2019-04-21 11:00:00+00:00,274.7864,0.35,13.29,47.84626,-54.09684
2019-04-21 11:10:00+00:00,281.6514,0.3,13.21,47.84626,-54.09684
2019-04-21 11:20:00+00:00,293.3396,0.3,13.37,47.84626,-54.09684
2019-04-21 11:30:00+00:00,299.4047,0.3,13.37,47.84626,-54.09684
2019-04-21 11:40:00+00:00,308.938,0.3,13.37,47.84626,-54.09684
2019-04-21 11:50:00+00:00,316.4596,0.3,13.37,47.84626,-54.09684
2019-04-21 12:00:00+00:00,324.8779,0.3,13.29,47.84626,-54.09684
2019-04-21 12:10:00+00:00,321.2163,0.3,13.21,47.84626,-54.09684
2019-04-21 12:20:00+00:00,326.733,0.3,13.37,47.84626,-54.09684
2019-04-21 12:30:00+00:00,331.8163,0.3,13.37,47.84626,-54.09684
2019-04-21 12:40:00+00:00,337.2112,0.3,13.44,47.84626,-54.09684
2019-04-21 12:50:00+00:00,336.188,0.3,13.44,47.84626,-54.09684
2019-04-21 13:00:00+00:00,335.428,0.32,13.37,47.84626,-54.09684
2019-04-21 13:10:00+00:00,344.2596,0.31,13.37,47.84626,-54.09684
2019-04-21 13:20:00+00:00,339.7429,0.31,13.53,47.84626,-54.09684
2019-04-21 13:30:00+00:00,336.253,0.33,13.53,47.84626,-54.09684
2019-04-21 13:40:00+00:00,341.9263,0.3,13.53,47.84626,-54.09684
2019-04-21 13:50:00+00:00,343.8813,0.31,13.53,47.84626,-54.09684
2019-04-21 14:00:00+00:00,331.4529,0.34,13.44,47.84626,-54.09684
2019-04-21 14:10:00+00:00,323.2546,0.35,13.29,47.84626,-54.09684
2019-04-21 14:20:00+00:00,327.018,0.33,13.37,47.84626,-54.09684
2019-04-21 14:30:00+00:00,323.0813,0.34,13.44,47.84626,-54.09684
2019-04-21 14:40:00+00:00,315.158,0.35,13.53,47.84626,-54.09684
2019-04-21 14:50:00+00:00,314.1281,0.36,13.6,47.84626,-54.09684
2019-04-21 15:00:00+00:00,307.5547,0.37,13.44,47.84626,-54.09684
2019-04-21 15:10:00+00:00,292.0164,0.36,13.37,47.84626,-54.09684
2019-04-21 15:20:00+00:00,288.778,0.38,13.6,47.84626,-54.09684
2019-04-21 15:30:00+00:00,287.9597,0.39,13.76,47.84626,-54.09684
2019-04-21 15:40:00+00:00,275.3864,0.4,14.0,47.84626,-54.09684
2019-04-21 15:50:00+00:00,250.9181,0.41,14.24,47.84626,-54.09684
2019-04-21 16:00:00+00:00,251.7714,0.47,14.08,47.84626,-54.09684
2019-04-21 16:10:00+00:00,248.1631,0.47,13.92,47.84626,-54.09684
2019-04-21 16:20:00+00:00,229.5881,0.49,14.0,47.84626,-54.09684
2019-04-21 16:30:00+00:00,213.3414,0.5,14.0,47.84626,-54.09684
2019-04-21 16:40:00+00:00,212.1115,0.5,14.0,47.84626,-54.09684
2019-04-21 16:50:00+00:00,200.0798,0.5,14.0,47.84626,-54.09684
2019-04-21 17:00:00+00:00,183.3315,0.56,13.92,47.84626,-54.09684
2019-04-21 17:10:00+00:00,178.5581,0.6,13.76,47.84626,-54.09684
2019-04-21 17:20:00+00:00,174.4764,0.59,13.84,47.84626,-54.09684
2019-04-21 17:30:00+00:00,160.6765,0.59,13.92,47.84626,-54.09684
2019-04-21 17:40:00+00:00,151.2082,0.6,13.92,47.84626,-54.09684
2019-04-21 17:50:00+00:00,157.3565,0.6,13.84,47.84626,-54.09684
2019-04-21 18:00:00+00:00,152.2782,0.6,13.76,47.84626,-54.09684
2019-04-21 18:10:00+00:00,138.9298,0.6,13.6,47.84626,-54.09684
2019-04-21 18:20:00+00:00,141.5799,0.6,13.6,47.84626,-54.09684
2019-04-21 18:30:00+00:00,152.1049,0.56,13.53,47.84626,-54.09684
2019-04-21 18:40:00+00:00,146.9565,0.54,13.53,47.84626,-54.09684
2019-04-21 18:50:00+00:00,136.5899,0.54,13.6,47.84626,-54.09684
2019-04-21 19:00:00+00:00,146.7449,0.5,13.53,47.84626,-54.09684
2019-04-21 19:10:00+00:00,153.4415,0.5,13.44,47.84626,-54.09684
2019-04-21 19:20:00+00:00,147.2932,0.5,13.53,47.84626,-54.09684
2019-04-21 19:30:00+00:00,153.6182,0.5,13.53,47.84626,-54.09684
2019-04-21 19:40:00+00:00,167.6565,0.49,13.6,47.84626,-54.09684
2019-04-21 19:50:00+00:00,165.6998,0.46,13.68,47.84626,-54.09684
2019-04-21 20:00:00+00:00,169.8115,0.42,13.53,47.84626,-54.09684
2019-04-21 20:10:00+00:00,180.2948,0.4,13.44,47.84626,-54.09684
2019-04-21 20:20:00+00:00,185.3964,0.4,13.44,47.84626,-54.09684
2019-04-21 20:30:00+00:00,190.7548,0.4,13.44,47.84626,-54.09684
2019-04-21 20:40:00+00:00,195.5948,0.4,13.44,47.84626,-54.09684
2019-04-21 20:50:00+00:00,206.3848,0.4,13.53,47.84626,-54.09684
2019-04-21 21:00:00+00:00,207.9148,0.4,13.44,47.84626,-54.09684
2019-04-21 21:10:00+00:00,206.9798,0.4,13.29,47.84626,-54.09684
2019-04-21 21:20:00+00:00,219.1631,0.4,13.29,47.84626,-54.09684
2019-04-21 21:30:00+00:00,227.9031,0.4,13.29,47.84626,-54.09684
2019-04-21 21:40:00+00:00,224.0197,0.39,13.29,47.84626,-54.09684
2019-04-21 21:50:00+00:00,228.0498,0.38,13.21,47.84626,-54.09684
2019-04-21 22:00:00+00:00,245.7581,0.34,13.13,47.84626,-54.09684
2019-04-21 22:10:00+00:00,249.6998,0.31,12.97,47.84626,-54.09684
2019-04-21 22:20:00+00:00,242.9248,0.3,13.05,47.84626,-54.09684
2019-04-21 22:30:00+00:00,251.6414,0.3,13.05,47.84626,-54.09684
2019-04-21 22:40:00+00:00,270.9514,0.3,13.05,47.84626,-54.09684
2019-04-21 22:50:00+00:00,270.0697,0.3,13.05,47.84626,-54.09684
2019-04-21 23:00:00+00:00,268.5514,0.3,12.97,47.84626,-54.09684
2019-04-21 23:10:00+00:00,285.9881,0.3,12.89,47.84626,-54.09684
2019-04-21 23:20:00+00:00,299.5563,0.3,12.97,47.84626,-54.09684
2019-04-21 23:30:00+00:00,295.3613,0.3,12.97,47.84626,-54.09684
2019-04-21 23:40:00+00:00,301.178,0.32,12.97,47.84626,-54.09684
2019-04-21 23:50:00+00:00,320.2163,0.34,12.97,47.84626,-54.09684
